Flag for United Kingdom Weather past 2 weeks in Stafford, England, United Kingdom

Now
50 °F

Passing clouds.


Feels Like: 45 °F
Forecast: 41 / 50 °F
Wind: 15 mph from West

Location: Shawbury

Current Time: Mar 29, 2015 at 2:49:14 AM

Latest Report: Mar 29, 2015 at 12:50 AM


Visibility: N/A

Pressure: 29.59 "Hg

Humidity: 67%

Dew point: 39 °F

Location of StaffordLocation

Historic Weather in Stafford — Graph

°F

Stafford temperature yesterday

Maximum temperature yesterday: 57 °F (at 1:50 PM)
Minimum temperature yesterday: 46 °F (at 12:50 AM)
Average temperature yesterday: 51 °F

Past Weeks' High & Low Weather Summary

 TemperatureHumidityPressure
High57 °F (Mar 28, 1:50 PM)100% (Mar 17, 2:50 AM)30.60 "Hg (Mar 17, 2:50 AM)
Low28 °F (Mar 18, 1:50 AM)54% (Mar 25, 3:50 PM)29.45 "Hg (Mar 26, 4:50 AM)
Average42 °F81%30.18 "Hg
* Reported Mar 14 12:50 AM — Mar 29 12:50 AM, Stafford, Weather by CustomWeather, © 2015

Note: Actual official high and low records may vary slightly from our data, if they occured in-between our weather recording intervals... More about our weather records

Advertising

Stafford weather history for previous 24 hours

 ConditionsComfort  
Time TempWeatherWind HumidityBarometerVisibility
12:50 AM
Sun, Mar 29
50 °FPassing clouds.15 mph67%29.59 "HgN/A
11:50 PM
Sat, Mar 28
50 °FPassing clouds.21 mph71%29.59 "HgN/A
10:50 PM50 °FPartly cloudy.22 mph76%29.59 "HgN/A
9:50 PM50 °FPassing clouds.24 mph76%29.59 "HgN/A
8:50 PM48 °FPassing clouds.16 mph82%29.59 "HgN/A
7:50 PM50 °FPassing clouds.17 mph76%29.62 "HgN/A
6:50 PM50 °FPassing clouds.15 mph88%29.62 "HgN/A
5:50 PM52 °FPartly sunny.22 mph82%29.62 "HgN/A
4:50 PM54 °FSprinkles. Partly sunny.18 mph82%29.62 "HgN/A
3:50 PM55 °FBroken clouds.21 mph72%29.62 "HgN/A
2:50 PM55 °FScattered clouds.23 mph77%29.62 "HgN/A
1:50 PM57 °FBroken clouds.25 mph72%29.62 "HgN/A
11:50 AM54 °FPartly sunny.18 mph88%29.65 "HgN/A
10:50 AM54 °FRain. Partly sunny.21 mph88%29.68 "HgN/A
9:50 AM54 °FRain. Partly sunny.20 mph88%29.71 "Hg4 mi
8:50 AM54 °FPartly sunny.21 mph82%29.71 "HgN/A
7:50 AM52 °FBroken clouds.20 mph88%29.74 "HgN/A
6:50 AM52 °FBroken clouds.15 mph88%29.77 "HgN/A
5:50 AM50 °FPassing clouds.14 mph88%29.80 "HgN/A
4:50 AM48 °FOvercast.10 mph87%29.83 "HgN/A
3:50 AM46 °FOvercast.10 mph93%29.86 "HgN/A
2:50 AM46 °FPassing clouds.12 mph87%29.89 "HgN/A
Weather by CustomWeather, © 2015

See weather overviewHow to use our weather pages